[[{"header":{"parameterUnit":"m.s-1","parameterCategory":1,"la1":30.2991,"la2":30.254,"lo1":-89.0895,"lo2":-89.0444,"dy":0.0017,"dx":0.0017,"nx":28,"ny":28,"refTime":"2024-09-29T09:00:00:Z","depth":0,"parameterNumber":2,"parameterNumberName":"U-component_of_WINDS"},"data":[0,0,0,0,0,0,0,0,0,0,0,0,0,0,0,0,0,0,0,0,0,0,0,0,0,0,0,0,0,0,0,0,0,0,0,0,0,0,0,0,0,0,0,0,0,0,0,0,0,0,0,0,0,0,0,0,0,0,1.1798,1.18,0,1.1924,1.1925,1.1926,1.1962,1.1962,1.1961,1.196,1.2088,1.2092,1.2096,0,0,0,0,0,0,0,0,0,0,0,0,0,1.1589,1.1593,1.1798,1.18,1.1801,1.1923,1.1925,1.1927,1.1963,1.1962,1.1961,1.196,1.2087,1.2091,1.2096,0,0,0,0,0,0,0,0,0,0,0,0,0,1.1694,1.1594,1.1798,1.1834,1.1838,1.1923,1.1925,1.1927,1.1963,1.1962,1.1961,1.196,1.2085,1.2091,1.2097,1.2155,0,0,1.2115,1.2118,0,0,0,0,0,0,0,0,1.1688,1.1701,1.1827,1.1831,1.1837,1.1926,1.1898,1.2003,1.1963,1.1915,1.196,1.1959,1.2035,1.2045,1.2071,1.216,1.2166,1.2116,1.212,1.2122,1.2124,0,0,0,0,0,0,0,1.1681,1.1696,1.1848,1.1829,1.1835,1.1844,1.1857,1.1918,1.1979,1.1919,1.1922,1.1937,1.2037,1.2065,1.2074,1.2168,1.2116,1.2121,1.2125,1.2127,1.2312,1.2313,0,0,0,0,0,0,1.1667,1.169,1.1844,1.1851,1.1758,1.1848,1.1864,1.1899,1.1979,1.199,1.1938,1.1938,1.2055,1.2067,1.2079,1.2152,1.2122,1.2128,1.2131,1.2311,1.2312,1.2314,0,0,0,0,0,0,1.1663,1.1681,1.1839,1.1772,1.1792,1.1853,1.1892,1.1902,1.1929,1.1992,1.2003,1.1954,1.2055,1.207,1.2136,1.2156,1.213,1.2136,1.2309,1.2311,1.2313,1.2298,0,0,0,0,0,0,1.1656,1.1679,1.1701,1.1772,1.1796,1.1893,1.1893,1.1905,1.1939,1.1941,1.2011,1.2022,1.2055,1.2126,1.2142,1.2164,1.2141,1.2307,1.231,1.2312,1.2296,1.2299,1.2301,0,0,0,0,0,1.1649,1.1691,1.1702,1.172,1.1825,1.1894,1.1908,1.1946,1.1941,1.1964,1.2005,1.202,1.2152,1.2133,1.215,1.2175,1.2306,1.2309,1.2312,1.2295,1.2298,1.2301,0,0,0,0,0,0,1.1621,1.1701,1.1714,1.1781,1.1831,1.19,1.193,1.1948,1.2,1.1999,1.2044,1.2059,1.2121,1.2155,1.2132,1.2235,1.223,1.2236,1.2211,1.2214,1.2216,1.2206,1.2146,0,0,0,0,0,1.1623,1.1672,1.174,1.1792,1.1817,1.1869,1.1901,1.1926,1.1979,1.2,1.2046,1.2097,1.215,1.2184,1.2237,1.2302,1.2318,1.2328,1.233,1.2331,1.2336,1.2373,1.2379,1.2323,1.2323,1.2323,0,0,1.1626,1.1676,1.1705,1.1788,1.183,1.188,1.1887,1.194,1.1978,1.2008,1.2073,1.2108,1.2168,1.2234,1.2265,1.2264,1.2355,1.2335,1.2336,1.234,1.2377,1.2382,1.2387,1.2325,1.2325,1.2324,0,0,1.1659,1.1702,1.175,1.1792,1.1856,1.189,1.1902,1.197,1.1995,1.2061,1.2085,1.2131,1.2221,1.2263,1.2296,1.2346,1.2361,1.2362,1.2372,1.2408,1.2413,1.2417,1.2434,1.244,1.2367,1.2367,1.2367,0,1.1655,1.1732,1.1773,1.1825,1.1861,1.1892,1.1942,1.198,1.2057,1.2081,1.2079,1.2194,1.2236,1.2312,1.2325,1.235,1.2365,1.2354,1.2409,1.2413,1.2418,1.2435,1.2442,1.2366,1.2366,1.2366,1.2366,0,1.1725,1.1778,1.181,1.1884,1.1924,1.1974,1.2022,1.2058,1.208,1.2115,1.2182,1.2234,1.2298,1.2318,1.234,1.2397,1.2395,1.24,1.2395,1.2422,1.2439,1.2446,1.2366,1.2366,1.2366,1.2366,0,0,1.1742,1.1839,1.185,1.1884,1.1957,1.1999,1.2051,1.2114,1.2143,1.2196,1.224,1.2317,1.2323,1.236,1.2387,1.2419,1.2455,1.2421,1.2423,1.2425,1.2522,1.2517,1.2524,1.2466,1.2468,1.2469,1.2517,0,1.1783,1.1878,1.1916,1.1993,1.2043,1.2074,1.212,1.2169,1.2204,1.2251,1.2289,1.2343,1.2347,1.237,1.2402,1.2444,1.2475,1.2441,1.2508,1.251,1.2491,1.2533,1.2527,1.257,1.2524,1.2525,1.2526,0,1.1843,1.1897,1.1979,1.2046,1.2069,1.2109,1.217,1.2215,1.2272,1.2295,1.2338,1.2363,1.2419,1.2411,1.2489,1.2465,1.2495,1.252,1.2522,1.2529,1.2519,1.254,1.2585,1.2591,1.2537,1.2536,1.2535,0,1.1847,1.194,1.2001,1.2029,1.2109,1.2137,1.2172,1.2228,1.2264,1.2317,1.2341,1.24,1.2432,1.2478,1.2519,1.2509,1.2593,1.2588,1.2613,1.2612,1.2628,1.2627,1.2677,1.2649,1.2649,1.2649,1.2648,0,1.1888,1.1937,1.2003,1.2041,1.2096,1.2141,1.2195,1.2231,1.2281,1.2326,1.2357,1.2399,1.2451,1.2499,1.2531,1.2591,1.2605,1.2625,1.2633,1.2622,1.262,1.2642,1.264,1.265,1.265,1.265,1.2649,0,1.1901,1.1948,1.2016,1.2087,1.2106,1.2144,1.2205,1.2242,1.2279,1.2336,1.2352,1.2409,1.2468,1.2513,1.2589,1.2611,1.2674,1.2683,1.2655,1.2659,1.2681,1.2678,1.2747,1.2759,1.2723,1.2723,1.2723,0,1.1924,1.1962,1.2038,1.2071,1.2105,1.2157,1.2194,1.224,1.2277,1.2346,1.2375,1.2436,1.2487,1.2579,1.2628,1.2686,1.2696,1.2717,1.2705,1.2693,1.2696,1.2693,1.2697,1.2718,1.2718,1.2718,1.2718,0,1.196,1.1981,1.2033,1.2094,1.2137,1.2187,1.2237,1.2263,1.2317,1.2358,1.2418,1.2458,1.2536,1.2596,1.266,1.2696,1.2716,1.2722,1.273,1.2719,1.2701,1.2711,1.2658,1.2719,1.2719,1.2719,1.2719,1.2719,1.1978,1.2014,1.2073,1.213,1.2173,1.222,1.2259,1.2301,1.2352,1.242,1.2444,1.2506,1.2563,1.2651,1.2688,1.2737,1.2738,1.2751,1.2754,1.2756,1.2755,1.2694,1.2749,1.2749,1.2749,1.2749,1.2749,0,1.2015,1.2055,1.2107,1.2177,1.2223,1.2239,1.2296,1.2332,1.2387,1.2439,1.2489,1.2559,1.2618,1.2671,1.2732,1.2762,1.2773,1.2776,1.2774,1.2782,1.2751,1.2737,1.2766,1.2766,1.2766,1.2766,1.2766,1.2766,1.2039,1.2101,1.2129,1.2212,1.2252,1.2314,1.2345,1.2388,1.243,1.2507,1.2556,1.2591,1.2644,1.2709,1.2764,1.2779,1.2799,1.2801,1.2817,1.2787,1.2784,1.2782,1.2769,1.2805,1.2805,1.2844,1.2844,1.2845]},{"header":{"parameterUnit":"m.s-1","parameterCategory":1,"la1":30.2991,"la2":30.254,"lo1":-89.0895,"lo2":-89.0444,"dy":0.0017,"dx":0.0017,"nx":28,"ny":28,"refTime":"2024-09-29T09:00:00:Z","depth":0,"parameterNumber":3,"parameterNumberName":"V-component_of_WINDS"},"data":[0,0,0,0,0,0,0,0,0,0,0,0,0,0,0,0,0,0,0,0,0,0,0,0,0,0,0,0,0,0,0,0,0,0,0,0,0,0,0,0,0,0,0,0,0,0,0,0,0,0,0,0,0,0,0,0,0,0,3.5388,3.5388,0,3.54,3.54,3.54,3.5357,3.5356,3.5355,3.5353,3.5363,3.5365,3.5366,0,0,0,0,0,0,0,0,0,0,0,0,0,3.5326,3.5327,3.5388,3.5388,3.5388,3.54,3.54,3.54,3.5357,3.5356,3.5354,3.5353,3.5363,3.5364,3.5366,0,0,0,0,0,0,0,0,0,0,0,0,0,3.5347,3.5328,3.5388,3.5368,3.5367,3.54,3.54,3.54,3.5358,3.5356,3.5354,3.5352,3.5362,3.5364,3.5366,3.5418,0,0,3.5373,3.5374,0,0,0,0,0,0,0,0,3.5346,3.5349,3.5371,3.537,3.5368,3.5375,3.5382,3.5406,3.5358,3.5361,3.5353,3.5351,3.5369,3.537,3.5376,3.5418,3.5419,3.5373,3.5374,3.5375,3.5376,0,0,0,0,0,0,0,3.5344,3.5348,3.5392,3.5371,3.537,3.5358,3.5359,3.5386,3.5375,3.5361,3.5358,3.536,3.5367,3.5374,3.5376,3.5419,3.5373,3.5375,3.5376,3.5377,3.5504,3.5506,0,0,0,0,0,0,3.5346,3.5347,3.5392,3.5393,3.5352,3.5361,3.5362,3.5375,3.5375,3.5373,3.5361,3.5358,3.5372,3.5374,3.5376,3.5437,3.5375,3.5377,3.5379,3.5502,3.5504,3.5506,0,0,0,0,0,0,3.5345,3.535,3.5392,3.5369,3.5374,3.5364,3.5379,3.5376,3.5383,3.5375,3.5373,3.5371,3.537,3.5373,3.5408,3.5437,3.5378,3.538,3.5499,3.5502,3.5505,3.5558,0,0,0,0,0,0,3.5343,3.535,3.537,3.537,3.5375,3.5424,3.5381,3.5378,3.5387,3.5383,3.5384,3.5382,3.5369,3.5405,3.541,3.5438,3.5382,3.5497,3.5501,3.5504,3.5554,3.5563,3.557,0,0,0,0,0,3.5341,3.5384,3.5371,3.5377,3.54,3.5426,3.5428,3.5413,3.539,3.5409,3.5404,3.5382,3.5433,3.5409,3.5414,3.5444,3.5495,3.55,3.5504,3.555,3.5561,3.557,0,0,0,0,0,0,3.5386,3.5383,3.5369,3.5414,3.542,3.5418,3.5443,3.5425,3.5438,3.5433,3.5413,3.5413,3.5452,3.5451,3.5425,3.5494,3.546,3.5466,3.5493,3.5503,3.5511,3.551,3.5384,0,0,0,0,0,3.5401,3.5423,3.5419,3.5459,3.5463,3.5453,3.5463,3.5451,3.5457,3.5459,3.5456,3.5462,3.5479,3.5491,3.5506,3.5554,3.5553,3.5576,3.5585,3.5591,3.5597,3.5622,3.5632,3.5522,3.5522,3.5522,0,0,3.5433,3.5434,3.5449,3.5468,3.5472,3.5494,3.5455,3.548,3.5496,3.5462,3.5495,3.5494,3.5499,3.554,3.5558,3.5541,3.5627,3.5597,3.5603,3.5604,3.5628,3.5638,3.5647,3.5525,3.5524,3.5524,0,0,3.5501,3.5505,3.5538,3.5543,3.555,3.5542,3.5551,3.5551,3.555,3.5582,3.5558,3.5576,3.5606,3.5611,3.5617,3.5689,3.5668,3.5694,3.5737,3.5762,3.577,3.5778,3.5803,3.5813,3.57,3.57,3.57,0,3.5539,3.5573,3.5557,3.5585,3.5594,3.5565,3.5598,3.5603,3.5614,3.5621,3.5602,3.5639,3.564,3.5682,3.57,3.5706,3.5714,3.5694,3.577,3.5778,3.5785,3.5809,3.5818,3.5703,3.5702,3.5702,3.5702,0,3.5619,3.5643,3.5669,3.5682,3.5693,3.5724,3.5712,3.5726,3.5713,3.5708,3.5741,3.5742,3.5757,3.5766,3.5754,3.5807,3.5796,3.5774,3.5739,3.5799,3.5821,3.583,3.5707,3.5706,3.5705,3.5704,0,0,3.5716,3.572,3.573,3.5736,3.5741,3.5759,3.5787,3.5803,3.5816,3.5824,3.5847,3.5874,3.5854,3.5861,3.5849,3.587,3.5927,3.5845,3.5845,3.5861,3.5986,3.6002,3.6013,3.5914,3.5915,3.5917,3.5985,0,3.5783,3.5834,3.5821,3.5871,3.5892,3.5866,3.5891,3.5896,3.5892,3.591,3.5905,3.5924,3.5896,3.59,3.592,3.5916,3.5952,3.5911,3.5935,3.5936,3.5934,3.6025,3.6042,3.6107,3.5994,3.5995,3.5996,0,3.5869,3.5882,3.5935,3.5937,3.5946,3.5968,3.5982,3.5999,3.6005,3.6,3.6009,3.5992,3.602,3.5986,3.6023,3.5996,3.6005,3.6004,3.6006,3.6008,3.597,3.6029,3.6127,3.6137,3.601,3.6009,3.6008,0,3.5934,3.5965,3.6001,3.6006,3.601,3.6027,3.6029,3.6033,3.6043,3.6055,3.6062,3.6076,3.6084,3.6095,3.6083,3.6059,3.6123,3.6087,3.6119,3.612,3.6134,3.6133,3.6235,3.614,3.614,3.6139,3.6139,0,3.6011,3.6044,3.603,3.6052,3.6088,3.6073,3.6108,3.6107,3.6111,3.6132,3.611,3.6129,3.6111,3.6129,3.612,3.6153,3.6156,3.6153,3.615,3.6155,3.6156,3.6161,3.6156,3.6142,3.6141,3.6141,3.614,0,3.609,3.6082,3.6119,3.612,3.6121,3.6148,3.6148,3.6168,3.6163,3.6189,3.6194,3.6186,3.6206,3.6194,3.6214,3.6208,3.6251,3.6241,3.6249,3.6247,3.628,3.6277,3.6388,3.6402,3.6298,3.6299,3.63,0,3.614,3.6165,3.6169,3.6182,3.6186,3.6206,3.6217,3.6203,3.6215,3.6224,3.6243,3.6261,3.6275,3.6308,3.6303,3.6319,3.631,3.6348,3.6312,3.6316,3.631,3.6309,3.6311,3.6355,3.6356,3.6357,3.6358,0,3.6228,3.6223,3.6241,3.6257,3.6271,3.6283,3.6293,3.6304,3.629,3.6305,3.6326,3.6336,3.6358,3.6376,3.6389,3.639,3.6372,3.6369,3.6378,3.6383,3.6387,3.6385,3.6269,3.6367,3.6366,3.6365,3.6365,3.6364,3.6294,3.6315,3.6322,3.6342,3.6348,3.6358,3.6377,3.6374,3.6392,3.6409,3.6399,3.6423,3.6428,3.6445,3.6449,3.6467,3.6452,3.6464,3.6467,3.647,3.6474,3.6384,3.6469,3.6469,3.6469,3.6468,3.6468,0,3.6381,3.6385,3.6403,3.6419,3.6434,3.6417,3.6427,3.6441,3.6463,3.647,3.6484,3.6508,3.6526,3.6523,3.6539,3.6555,3.6547,3.6559,3.6558,3.6559,3.6487,3.6478,3.6566,3.6566,3.6566,3.6566,3.6566,3.6566,3.6429,3.6464,3.646,3.6498,3.65,3.6525,3.6532,3.6541,3.6547,3.6575,3.659,3.6588,3.6591,3.6608,3.6623,3.6622,3.6629,3.6645,3.664,3.6573,3.6564,3.6554,3.6546,3.6646,3.6646,3.671,3.6711,3.6711]}]]